Weather Roundup
Issued by NWS Springfield, MO

Home | Current Version | Previous Version | Text Only | Print | Product List | Glossary On
Versions: 1 2 3 4 5 6 7 8 9 10 11 12 13 14 15 16 17 18 19 20 21 22 23 24 25 26 27 28 29 30 31 32 33 34 35 36 37 38 39 40 41 42 43 44 45 46 47 48 49 50
000
NZUS99 KSGF 260807
HRRSGF

HOURLY WEATHER
NATIONAL WEATHER SERVICE SPRINGFIELD MO
200 AM CST SUN FEB 26 2017

......SGF CWA......

CITY           SKY/WX    TMP DP  RH WIND       PRES   REMARKS
SPRINGFIELD    CLEAR     27  16  63 SE9       30.07S WCI  18
JOPLIN         PTCLDY    33  17  51 SE7       30.06F WCI  27
WEST PLAINS    CLEAR     31  11  43 SE5       30.11F WCI  26
ROLLA          CLEAR     26  13  57 S9        30.07S WCI  17
OSAGE BEACH    CLEAR     25  15  66 SE5       30.10S WCI  19
BRANSON        MOCLDY    32  14  47 SE6       30.09S WCI  26

......SURROUNDING SGF CWA......

CITY           SKY/WX    TMP DP  RH WIND       PRES   REMARKS
CHANUTE        CLOUDY    33  19  56 SE7       30.03S WCI  27
PARSONS        MOCLDY    36  16  44 SE5       30.04F WCI  32
COFFEYVILLE    PTCLDY    31  18  58 CALM      30.03F
EMPORIA        CLOUDY    33  16  49 S15       29.97F WCI  23
GROVE OK       PTCLDY    28  23  80 CALM      30.08F
ROGERS AR      MOCLDY    31  23  72 SE8       30.07S WCI  23
SILOAM SPRINGS CLOUDY    30  18  59 E7        30.06F WCI  23
HARRISON AR    CLEAR     28  21  75 SE3       30.09S
NEAR YELLVILLE CLEAR     27  18  69 CALM      30.10S

......KANSAS AND MISSOURI......

CITY           SKY/WX    TMP DP  RH WIND       PRES   REMARKS
KANSAS CTY INT CLEAR     33  13  43 SW15      29.98R WCI  23
DOWNTOWN KC    PTCLDY    38  13  35 S15       30.00R WCI  29
COLUMBIA       MOCLDY    26  14  60 S10       30.05F WCI  16
SEDALIA        CLEAR     33  14  45 S13       30.05S WCI  24
ST JOSEPH      PTCLDY    30  17  58 S7        29.97S WCI  23
ST LOUIS       PTCLDY    29  15  56 CALM      30.11F
SPIRIT OF STL  PTCLDY    20  16  84 CALM      30.11F
KIRKSVILLE     PTCLDY    29  13  51 S9        30.00F WCI  20
WICHITA        CLOUDY    35  19  52 SE9       29.94F WCI  28
TOPEKA         PTCLDY    35  16  45 S10G18    29.98S WCI  27
OLATHE         PTCLDY    31  15  52 S9        30.00R WCI  23

......TENNESSEE......

CITY           SKY/WX    TMP DP  RH WIND       PRES   REMARKS
MEMPHIS        CLEAR     32  23  69 S6        30.16S WCI  26
NASHVILLE      CLEAR     32  20  61 CALM      30.17S

......ARKANSAS.......

CITY           SKY/WX    TMP DP  RH WIND       PRES   REMARKS
FAYETTEVILLE   PTCLDY    26  21  81 CALM      30.08F
FT SMITH       PTCLDY    34  26  72 E5        30.11R WCI  30
LITTLE ROCK    PTCLDY    33  31  92 CALM      30.15F

......OKLAHOMA.......

CITY           SKY/WX    TMP DP  RH WIND       PRES   REMARKS
TULSA          MOCLDY    40  18  41 S9        30.02F WCI  34
PONCA CITY     CLOUDY    38  18  44 S15       29.98F WCI  29
MCALESTER      CLEAR     33  19  56 SE6       30.06F WCI  28
OKLAHOMA CITY  MOCLDY    36  20  52 SE12      29.97F WCI  28

......IOWA............

CITY           SKY/WX    TMP DP  RH WIND       PRES   REMARKS
DES MOINES     CLOUDY    32  17  54 SW12      29.89F WCI  23
QUAD CITIES    MOCLDY    26  17  68 CALM      30.02F

......ILLINOIS........

CITY           SKY/WX    TMP DP  RH WIND       PRES   REMARKS
QUINCY         CLOUDY    29  15  56 S10       30.04F WCI  20
CHICAGO        PTCLDY    24  16  71 SW5       30.04S WCI  18




USA.gov is the U.S. government's official web portal to all federal, state and local government web resources and services.